Location: �terpigny
(49.8910°N, 2.9249°E)
Time: 10:55:25
(UTC+00:00)

Cosmos 2369 Rocket - Pass Details

Date: 24 October 2021
Orbit: 829 x 852 km, 71.0° (Epoch: 30 November)

Event Time Altitude Azimuth Distance (km) Brightness Sun altitude
Rises 19:06:05 0° 330° (NNW) 3,384 5.9 -24.2°
Reaches altitude 10° 19:10:55 10° 7° (N) 2,448 4.6 -25.0°
Maximum altitude 19:12:16 11° 21° (NNE) 2,390 4.4 -25.2°
Enters shadow 19:12:30 11° 23° (NNE) 2,392 4.4 -25.2°
